�������l�o���
Date,Time,MP-1(��Sv/h),MP-2(��Sv/h),MP-3(��Sv/h),MP-4(��Sv/h),MP-5(��Sv/h),MP-6(��Sv/h),MP-7(��Sv/h),MP-8(��Sv/h),����,����(m/s),���J
2023/12/21,00:00,0.511,0.773,0.485,0.970,0.696,0.314,0.562,0.525,�k�k��,7.7,��
2023/12/21,00:10,0.509,0.772,0.484,0.974,0.695,0.312,0.562,0.526,�k��,7.8,��
2023/12/21,00:20,0.511,0.772,0.484,0.973,0.697,0.313,0.562,0.526,�k��,6.9,�L
2023/12/21,00:30,0.511,0.775,0.482,0.973,0.698,0.312,0.562,0.524,�k�k��,7.3,��
2023/12/21,00:40,0.510,0.774,0.483,0.972,0.697,0.313,0.563,0.527,�k�k��,7.0,��
2023/12/21,00:50,0.512,0.774,0.483,0.973,0.695,0.312,0.561,0.527,�k�k��,6.8,��
2023/12/21,01:00,0.510,0.772,0.484,0.973,0.696,0.312,0.561,0.526,�k�k��,7.9,��
2023/12/21,01:10,0.509,0.774,0.485,0.970,0.698,0.314,0.561,0.527,�k�k��,7.2,��
2023/12/21,01:20,0.510,0.774,0.482,0.971,0.697,0.313,0.562,0.526,�k�k��,7.2,��
2023/12/21,01:30,0.510,0.773,0.482,0.970,0.696,0.313,0.561,0.524,�k�k��,6.8,��
2023/12/21,01:40,0.510,0.771,0.482,0.971,0.698,0.313,0.563,0.525,�k�k��,6.3,��
2023/12/21,01:50,0.510,0.773,0.484,0.973,0.698,0.315,0.562,0.526,�k�k��,7.0,��
2023/12/21,02:00,0.511,0.775,0.484,0.972,0.699,0.313,0.563,0.526,�k�k��,6.9,��
2023/12/21,02:10,0.513,0.771,0.483,0.968,0.696,0.313,0.562,0.525,�k�k��,5.8,��
2023/12/21,02:20,0.510,0.773,0.483,0.971,0.698,0.312,0.562,0.527,�k�k��,6.7,��
2023/12/21,02:30,0.511,0.772,0.483,0.971,0.697,0.314,0.561,0.527,�k�k��,7.2,��
2023/12/21,02:40,0.509,0.773,0.484,0.972,0.698,0.313,0.562,0.527,�k�k��,7.0,��
2023/12/21,02:50,0.510,0.773,0.482,0.970,0.696,0.313,0.562,0.525,�k�k��,7.5,��
2023/12/21,03:00,0.510,0.771,0.483,0.972,0.697,0.312,0.563,0.527,�k�k��,8.6,��
2023/12/21,03:10,0.510,0.772,0.483,0.973,0.697,0.313,0.561,0.525,�k�k��,7.6,��
2023/12/21,03:20,0.511,0.774,0.483,0.973,0.696,0.312,0.565,0.526,�k�k��,8.2,��
2023/12/21,03:30,0.510,0.772,0.483,0.973,0.697,0.315,0.563,0.526,�k�k��,7.7,��
2023/12/21,03:40,0.510,0.774,0.484,0.973,0.698,0.313,0.561,0.525,�k�k��,8.1,��
2023/12/21,03:50,0.509,0.775,0.483,0.975,0.697,0.312,0.562,0.527,�k�k��,8.6,��
2023/12/21,04:00,0.511,0.772,0.485,0.971,0.696,0.312,0.563,0.526,�k�k��,8.1,��
2023/12/21,04:10,0.509,0.771,0.483,0.973,0.697,0.313,0.563,0.526,�k�k��,8.4,��
2023/12/21,04:20,0.511,0.773,0.483,0.972,0.696,0.311,0.562,0.526,�k�k��,8.6,��
2023/12/21,04:30,0.510,0.772,0.483,0.974,0.697,0.311,0.562,0.525,�k�k��,8.5,��
2023/12/21,04:40,0.511,0.772,0.482,0.974,0.697,0.310,0.563,0.526,�k�k��,8.2,��
2023/12/21,04:50,0.511,0.773,0.482,0.970,0.697,0.312,0.562,0.526,�k�k��,8.2,��
2023/12/21,05:00,0.510,0.774,0.480,0.972,0.696,0.311,0.562,0.525,�k�k��,6.7,��
2023/12/21,05:10,0.510,0.771,0.483,0.971,0.698,0.312,0.563,0.527,�k�k��,6.7,��
2023/12/21,05:20,0.512,0.774,0.483,0.972,0.699,0.314,0.562,0.525,�k�k��,6.6,��
2023/12/21,05:30,0.510,0.773,0.483,0.970,0.699,0.313,0.562,0.526,�k�k��,8.2,��
2023/12/21,05:40,0.511,0.772,0.483,0.972,0.698,0.312,0.562,0.526,�k�k��,7.8,��
2023/12/21,05:50,0.510,0.773,0.482,0.974,0.697,0.313,0.562,0.525,�k�k��,7.4,��
2023/12/21,06:00,0.511,0.771,0.483,0.973,0.698,0.312,0.562,0.524,�k�k��,6.8,��
2023/12/21,06:10,0.510,0.772,0.483,0.972,0.697,0.313,0.563,0.527,�k�k��,7.7,��
2023/12/21,06:20,0.509,0.771,0.484,0.971,0.696,0.313,0.562,0.525,�k�k��,7.4,��
2023/12/21,06:30,0.511,0.775,0.482,0.972,0.696,0.312,0.562,0.525,�k�k��,7.8,��
2023/12/21,06:40,0.510,0.774,0.483,0.973,0.698,0.312,0.562,0.525,�k�k��,8.3,��
2023/12/21,06:50,0.509,0.772,0.484,0.973,0.696,0.313,0.563,0.526,�k�k��,7.4,��
2023/12/21,07:00,0.511,0.773,0.484,0.972,0.697,0.312,0.562,0.526,�k�k��,7.9,��
2023/12/21,07:10,0.510,0.772,0.482,0.972,0.696,0.313,0.560,0.526,�k�k��,6.7,��
2023/12/21,07:20,0.511,0.773,0.482,0.972,0.697,0.313,0.561,0.525,�k�k��,7.5,��
2023/12/21,07:30,0.509,0.773,0.483,0.972,0.697,0.313,0.560,0.525,�k��,7.9,��
2023/12/21,07:40,0.510,0.772,0.484,0.972,0.697,0.311,0.562,0.525,�k�k��,6.6,��
2023/12/21,07:50,0.511,0.772,0.484,0.973,0.696,0.311,0.563,0.526,�k�k��,7.4,��
2023/12/21,08:00,0.511,0.772,0.483,0.972,0.697,0.312,0.563,0.525,�k�k��,5.8,��
2023/12/21,08:10,0.511,0.773,0.484,0.972,0.696,0.312,0.562,0.526,�k�k��,8.0,��
2023/12/21,08:20,0.512,0.773,0.484,0.973,0.697,0.313,0.563,0.526,�k�k��,5.7,��
2023/12/21,08:30,0.511,0.772,0.483,0.971,0.696,0.311,0.562,0.526,�k�k��,6.0,��
2023/12/21,08:40,0.510,0.772,0.484,0.971,0.695,0.313,0.562,0.525,�k�k��,4.4,��
2023/12/21,08:50,0.512,0.774,0.485,0.972,0.695,0.313,0.564,0.525,�k�k��,6.0,��
2023/12/21,09:00,0.511,0.773,0.482,0.973,0.696,0.312,0.563,0.527,�k�k��,6.2,��
2023/12/21,09:10,0.511,0.775,0.484,0.974,0.697,0.314,0.563,0.526,�k�k��,4.7,��
2023/12/21,09:20,0.511,0.774,0.482,0.973,0.697,0.314,0.564,0.527,�k�k��,6.1,��
2023/12/21,09:30,0.512,0.774,0.484,0.973,0.695,0.313,0.563,0.527,�k�k��,5.8,��
2023/12/21,09:40,0.511,0.773,0.484,0.972,0.697,0.312,0.562,0.526,�k�k��,4.3,��
2023/12/21,09:50,0.512,0.776,0.484,0.973,0.695,0.312,0.562,0.524,�k�k��,4.9,��
2023/12/21,10:00,0.512,0.776,0.485,0.974,0.697,0.313,0.562,0.526,�k�k��,4.4,��
2023/12/21,10:10,0.512,0.775,0.485,0.972,0.697,0.312,0.560,0.525,�k�k��,4.7,��
2023/12/21,10:20,0.513,0.775,0.485,0.974,0.698,0.312,0.560,0.527,�k�k��,5.3,��
2023/12/21,10:30,0.511,0.775,0.485,0.975,0.697,0.314,0.561,0.526,�k�k��,6.0,��
2023/12/21,10:40,0.512,0.776,0.483,0.974,0.698,0.313,0.563,0.525,�k,4.5,��
2023/12/21,10:50,0.511,0.774,0.485,0.974,0.698,0.314,0.561,0.526,�k�k��,4.9,��
2023/12/21,11:00,0.513,0.774,0.485,0.975,0.699,0.313,0.562,0.526,�k,4.5,��
2023/12/21,11:10,0.514,0.772,0.484,0.976,0.697,0.314,0.562,0.526,�k�k��,4.3,��
2023/12/21,11:20,0.511,0.774,0.485,0.973,0.699,0.313,0.562,0.527,�k,4.5,��
2023/12/21,11:30,0.513,0.774,0.486,0.974,0.698,0.314,0.563,0.527,�k�k��,4.6,��
2023/12/21,11:40,0.513,0.773,0.485,0.974,0.700,0.314,0.564,0.525,�k,4.8,��
2023/12/21,11:50,0.514,0.774,0.485,0.975,0.698,0.313,0.563,0.527,�k,4.5,��
2023/12/21,12:00,0.512,0.774,0.487,0.975,0.701,0.315,0.562,0.526,�k,6.0,��
2023/12/21,12:10,0.513,0.775,0.485,0.975,0.700,0.312,0.563,0.527,�k,5.9,��
2023/12/21,12:20,0.513,0.774,0.484,0.975,0.701,0.314,0.564,0.526,�k�k��,5.4,��
2023/12/21,12:30,0.512,0.773,0.486,0.975,0.699,0.316,0.564,0.526,�k,4.9,��
2023/12/21,12:40,0.512,0.776,0.483,0.975,0.701,0.314,0.563,0.527,�k�k��,4.6,�L
2023/12/21,12:50,0.513,0.775,0.486,0.976,0.700,0.314,0.564,0.527,�k,3.6,�L
2023/12/21,13:00,0.512,0.775,0.485,0.973,0.701,0.316,0.565,0.528,�k,5.3,�L
2023/12/21,13:10,0.513,0.775,0.487,0.977,0.701,0.316,0.565,0.528,�k�k��,5.3,��
2023/12/21,13:20,0.513,0.777,0.486,0.977,0.702,0.315,0.565,0.525,�k,4.2,��
2023/12/21,13:30,0.514,0.777,0.486,0.977,0.699,0.316,0.564,0.529,�k,5.1,��
2023/12/21,13:40,0.514,0.778,0.485,0.974,0.701,0.316,0.563,0.529,�k,4.5,��
2023/12/21,13:50,0.513,0.776,0.486,0.977,0.702,0.315,0.564,0.526,�k,4.1,��
2023/12/21,14:00,0.513,0.777,0.486,0.975,0.701,0.315,0.563,0.527,�k,5.4,��
2023/12/21,14:10,0.514,0.776,0.486,0.977,0.701,0.315,0.564,0.528,�k,4.5,�L
2023/12/21,14:20,0.513,0.775,0.487,0.974,0.699,0.315,0.563,0.528,�k�k��,4.5,�L
2023/12/21,14:30,0.515,0.775,0.487,0.975,0.701,0.314,0.565,0.527,�k��,5.6,�L
2023/12/21,14:40,0.514,0.778,0.487,0.974,0.701,0.314,0.565,0.527,�k��,5.8,�L
2023/12/21,14:50,0.515,0.777,0.486,0.976,0.700,0.316,0.563,0.528,�k��,5.7,�L
2023/12/21,15:00,0.515,0.779,0.485,0.976,0.701,0.314,0.564,0.527,�k�k��,4.9,�L
2023/12/21,15:10,0.513,0.779,0.487,0.976,0.701,0.314,0.563,0.527,�k��,3.6,�L
2023/12/21,15:20,0.515,0.778,0.486,0.976,0.701,0.314,0.564,0.526,�k��,3.5,�L
2023/12/21,15:30,0.513,0.779,0.486,0.976,0.700,0.314,0.563,0.525,�k�k��,3.4,�L
2023/12/21,15:40,0.515,0.777,0.487,0.974,0.699,0.314,0.562,0.528,�k��,3.0,��
2023/12/21,15:50,0.512,0.777,0.487,0.975,0.700,0.315,0.565,0.527,�k��,2.6,��
2023/12/21,16:00,0.513,0.778,0.486,0.978,0.699,0.314,0.564,0.527,�k�k��,2.6,��
2023/12/21,16:10,0.513,0.779,0.486,0.975,0.700,0.314,0.564,0.527,�k�k��,3.5,��
2023/12/21,16:20,0.512,0.777,0.486,0.974,0.699,0.315,0.564,0.526,�k�k��,3.7,��
2023/12/21,16:30,0.513,0.779,0.484,0.973,0.699,0.314,0.562,0.526,�k��,3.6,��
2023/12/21,16:40,0.513,0.776,0.484,0.973,0.700,0.314,0.563,0.526,�k�k��,4.6,��
2023/12/21,16:50,0.512,0.777,0.485,0.975,0.699,0.314,0.560,0.528,�k��,5.0,��
2023/12/21,17:00,0.512,0.778,0.486,0.972,0.698,0.314,0.564,0.526,�k�k��,3.6,��
2023/12/21,17:10,0.512,0.775,0.485,0.973,0.700,0.314,0.562,0.528,�k��,3.9,��
2023/12/21,17:20,0.512,0.776,0.487,0.976,0.699,0.313,0.562,0.527,�k�k��,4.4,��
2023/12/21,17:30,0.512,0.776,0.485,0.977,0.700,0.311,0.561,0.523,�k��,4.5,��
2023/12/21,17:40,0.512,0.777,0.485,0.975,0.699,0.314,0.563,0.526,���k��,3.8,��
2023/12/21,17:50,0.512,0.776,0.485,0.976,0.699,0.314,0.562,0.527,���k��,3.6,��
2023/12/21,18:00,0.512,0.775,0.485,0.976,0.699,0.312,0.561,0.526,�k��,2.6,��
2023/12/21,18:10,0.512,0.778,0.485,0.974,0.698,0.313,0.563,0.525,���k��,5.7,��
2023/12/21,18:20,0.510,0.776,0.485,0.975,0.699,0.313,0.563,0.526,���k��,6.6,��
2023/12/21,18:30,0.512,0.777,0.485,0.975,0.700,0.315,0.561,0.525,���k��,6.5,��
2023/12/21,18:40,0.511,0.775,0.485,0.974,0.700,0.313,0.561,0.525,���k��,6.2,��
2023/12/21,18:50,0.511,0.775,0.486,0.971,0.698,0.312,0.560,0.524,�k��,3.9,��
2023/12/21,19:00,0.512,0.777,0.485,0.974,0.700,0.313,0.562,0.525,�k��,6.2,��
2023/12/21,19:10,0.512,0.777,0.484,0.975,0.699,0.312,0.561,0.526,�k��,5.1,��
2023/12/21,19:20,0.513,0.778,0.483,0.975,0.699,0.314,0.561,0.526,�k�k��,5.8,��
2023/12/21,19:30,0.511,0.776,0.484,0.975,0.700,0.315,0.563,0.525,�k�k��,6.5,��
2023/12/21,19:40,0.513,0.776,0.483,0.975,0.698,0.314,0.562,0.525,�k�k��,7.3,��
2023/12/21,19:50,0.511,0.774,0.485,0.975,0.698,0.312,0.561,0.526,�k�k��,7.9,��
2023/12/21,20:00,0.512,0.777,0.485,0.974,0.701,0.312,0.563,0.526,�k��,9.4,��
2023/12/21,20:10,0.511,0.777,0.487,0.975,0.700,0.310,0.562,0.523,�k��,9.5,��
2023/12/21,20:20,0.512,0.776,0.485,0.977,0.700,0.312,0.561,0.525,�k��,9.4,��
2023/12/21,20:30,0.512,0.776,0.484,0.976,0.698,0.311,0.562,0.525,�k��,8.4,��
2023/12/21,20:40,0.511,0.775,0.485,0.976,0.700,0.312,0.562,0.526,�k��,8.9,��
2023/12/21,20:50,0.511,0.776,0.484,0.974,0.700,0.312,0.561,0.525,�k��,8.1,��
2023/12/21,21:00,0.513,0.776,0.484,0.977,0.700,0.313,0.562,0.524,�k��,5.7,��
2023/12/21,21:10,0.512,0.776,0.485,0.977,0.699,0.312,0.562,0.526,�k�k��,5.8,��
2023/12/21,21:20,0.511,0.775,0.485,0.977,0.700,0.311,0.561,0.525,�k�k��,6.9,��
2023/12/21,21:30,0.513,0.776,0.484,0.975,0.699,0.311,0.562,0.525,�k�k��,6.7,��
2023/12/21,21:40,0.511,0.775,0.485,0.975,0.697,0.311,0.563,0.523,�k�k��,7.6,��
2023/12/21,21:50,0.512,0.777,0.485,0.976,0.699,0.311,0.561,0.526,�k,7.9,��
2023/12/21,22:00,0.510,0.776,0.486,0.975,0.698,0.312,0.561,0.525,�k,7.7,��
2023/12/21,22:10,0.510,0.777,0.485,0.975,0.700,0.311,0.561,0.526,�k,5.7,��
2023/12/21,22:20,0.511,0.776,0.482,0.974,0.699,0.312,0.561,0.526,�k,6.5,��
2023/12/21,22:30,0.513,0.776,0.486,0.977,0.701,0.313,0.562,0.526,�k,6.7,��
2023/12/21,22:40,0.512,0.776,0.484,0.977,0.698,0.313,0.562,0.524,�k�k��,6.1,��
2023/12/21,22:50,0.512,0.778,0.483,0.974,0.701,0.312,0.561,0.527,�k�k��,5.7,��
2023/12/21,23:00,0.511,0.776,0.484,0.975,0.699,0.313,0.561,0.526,�k�k��,5.6,��
2023/12/21,23:10,0.513,0.774,0.484,0.976,0.698,0.313,0.561,0.524,�k�k��,4.9,��
2023/12/21,23:20,0.512,0.775,0.484,0.975,0.698,0.314,0.561,0.526,�k�k��,4.6,��
2023/12/21,23:30,0.511,0.776,0.485,0.975,0.699,0.313,0.561,0.527,�k�k��,3.3,��
2023/12/21,23:40,0.511,0.775,0.484,0.976,0.697,0.313,0.562,0.524,�k�k��,4.8,��
2023/12/21,23:50,0.512,0.778,0.484,0.974,0.698,0.312,0.562,0.523,�k�k��,4.5,��
